Date String (YYYY-MM-DD hh:mm:ss) UTC,Instrument flags,Ambient pressure (hPa),Sample flow (lpm),Bypass flow (lpm),Sample temperature (°C),Ambient temperature (°C),ASC tube jacket temperature (°C),LED temperature (°C),Box temperature (°C),Sample RH (%),Span deviation,Mass concentration (μg/m³),Mass concentration (μg/m³),Mass concentration (μg/m³)
DateTimeUTC,F1_M11,P_M11,Q1_M11,Q2_M11,T1_M11,T2_M11,T3_M11,T4_M11,T5_M11,U1_M11,ZSPAN_M11,X0_M11,X2_M11,X1_M11
2023-01-28 06:00:00,,0815.2,5.00,0.00,21.7,20.2,00.0,30.6,23.4,10.4,0000.0,0001.36,0000.80,0000.59
2023-01-28 06:01:00,,0815.3,4.99,0.00,21.7,20.2,00.0,30.6,23.4,11.0,0000.0,0001.90,0000.91,0000.66
2023-01-28 06:02:00,,0815.4,5.01,0.00,21.7,20.2,00.0,30.6,23.4,11.1,0000.0,0002.62,0001.02,0000.73
2023-01-28 06:03:00,,0815.5,4.99,0.00,21.7,20.2,00.0,30.6,23.4,11.2,0000.0,0002.74,0001.09,0000.78
2023-01-28 06:04:00,,0815.5,5.01,0.00,21.7,20.2,00.0,30.6,23.4,11.0,0000.0,0002.94,0001.18,0000.82
2023-01-28 06:05:00,,0815.3,5.00,0.00,21.7,20.4,00.0,30.6,23.5,11.0,0000.0,0003.04,0001.23,0000.86
2023-01-28 06:06:00,,0815.2,5.00,0.00,21.8,21.6,00.0,30.5,23.7,10.9,0000.0,0003.07,0001.26,0000.90
2023-01-28 06:07:00,,0815.2,4.98,0.00,21.9,22.6,00.0,30.6,24.0,10.9,0000.0,0003.08,0001.35,0001.00
2023-01-28 06:08:00,,0815.2,4.99,0.00,22.0,22.8,00.0,30.6,24.2,10.7,0000.0,0003.19,0001.46,0001.11
2023-01-28 06:09:00,,0815.2,5.00,0.00,22.1,22.3,00.0,30.7,24.1,10.6,0000.0,0003.77,0001.57,0001.23
2023-01-28 06:10:00,,0815.3,5.01,0.00,22.1,21.9,00.0,30.7,24.0,10.6,0000.0,0003.98,0001.69,0001.35
2023-01-28 06:11:00,,0815.2,4.99,0.00,22.1,21.5,00.0,30.8,23.9,10.7,0000.0,0004.80,0001.84,0001.48
2023-01-28 06:12:00,,0815.2,5.00,0.00,22.1,21.2,00.0,30.8,23.8,10.7,0000.0,0005.44,0001.92,0001.56
2023-01-28 06:13:00,,0815.4,5.01,0.00,22.1,21.1,00.0,30.8,23.8,10.7,0000.0,0004.85,0001.95,0001.63
2023-01-28 06:14:00,,0815.4,5.01,0.00,22.1,21.0,00.0,30.8,23.8,10.9,0000.0,0004.92,0002.02,0001.71
2023-01-28 06:15:00,,0815.4,5.01,0.00,22.0,20.7,00.0,30.8,23.7,10.8,0000.0,0005.02,0002.11,0001.79
2023-01-28 06:16:00,,0815.4,4.99,0.00,22.0,20.3,00.0,30.8,23.6,10.7,0000.0,0005.11,0002.20,0001.88
2023-01-28 06:17:00,,0815.7,4.99,0.00,21.9,20.1,00.0,30.8,23.5,10.8,0000.0,0005.29,0002.33,0001.98
2023-01-28 06:18:00,,0816.1,5.03,0.00,21.9,20.2,00.0,30.8,23.5,10.7,0000.0,0005.32,0002.36,0002.04
2023-01-28 06:19:00,,0816.1,4.98,0.00,21.9,20.2,00.0,30.8,23.6,10.7,0000.0,0005.37,0002.41,0002.06
2023-01-28 06:20:00,,0815.7,5.00,0.00,21.9,20.3,00.0,30.8,23.6,10.8,0000.0,0005.01,0002.45,0002.11
2023-01-28 06:21:00,,0815.5,5.04,0.00,21.9,20.3,00.0,30.8,23.6,10.9,0000.0,0004.98,0002.53,0002.18
2023-01-28 06:22:00,,0815.9,4.97,0.00,21.9,20.3,00.0,30.8,23.6,10.8,0000.0,0004.56,0002.57,0002.22
2023-01-28 06:23:00,,0815.8,5.08,0.00,21.9,20.4,00.0,30.8,23.6,10.6,0000.0,0003.67,0002.56,0002.20
2023-01-28 06:24:00,,0815.4,5.00,0.00,21.9,20.4,00.0,30.8,23.6,10.5,0000.0,0003.62,0002.54,0002.17
2023-01-28 06:25:00,,0815.8,5.02,0.00,21.9,20.5,00.0,30.8,23.6,10.5,0000.0,0003.57,0002.51,0002.15
2023-01-28 06:26:00,,0816.0,5.00,0.00,21.9,20.5,00.0,30.8,23.6,10.5,0000.0,0003.43,0002.46,0002.13
2023-01-28 06:27:00,,0815.7,5.00,0.00,21.9,20.5,00.0,30.8,23.6,10.4,0000.0,0003.47,0002.44,0002.11
2023-01-28 06:28:00,,0815.7,5.01,0.00,21.9,20.5,00.0,30.8,23.6,10.4,0000.0,0003.47,0002.38,0002.04
2023-01-28 06:29:00,,0815.9,4.99,0.00,21.9,20.7,00.0,30.8,23.7,10.3,0000.0,0003.40,0002.31,0001.97
2023-01-28 06:30:00,,0815.7,5.00,0.00,22.0,21.6,00.0,30.7,23.9,10.1,0000.0,0003.25,0002.19,0001.86
2023-01-28 06:31:00,,0815.4,5.01,0.00,22.1,22.6,00.0,30.7,24.2,10.0,0000.0,0003.17,0002.08,0001.72
2023-01-28 06:32:00,,0815.4,4.99,0.00,22.2,22.8,00.0,30.8,24.3,09.9,0000.0,0002.96,0001.93,0001.58
2023-01-28 06:33:00,,0815.4,4.99,0.00,22.3,22.4,00.0,30.9,24.2,09.9,0000.0,0002.70,0001.76,0001.44
2023-01-28 06:34:00,,0815.4,4.99,0.00,22.2,21.9,00.0,30.9,24.1,09.9,0000.0,0002.51,0001.65,0001.36
2023-01-28 06:35:00,,0815.5,5.00,0.00,22.2,21.6,00.0,30.9,24.1,09.9,0000.0,0002.34,0001.57,0001.31
2023-01-28 06:36:00,,0815.4,4.99,0.00,22.2,21.4,00.0,31.0,24.0,09.9,0000.0,0002.24,0001.50,0001.25
2023-01-28 06:37:00,,0815.4,5.00,0.00,22.2,21.2,00.0,31.0,24.0,09.9,0000.0,0002.68,0001.50,0001.22
2023-01-28 06:38:00,,0815.5,5.03,0.00,22.2,21.1,00.0,31.0,24.0,09.9,0000.0,0002.85,0001.50,0001.18
2023-01-28 06:39:00,,0815.9,5.01,0.00,22.2,20.9,00.0,31.0,23.9,10.0,0000.0,0002.65,0001.44,0001.16
2023-01-28 06:40:00,,0815.9,4.98,0.00,22.2,20.9,00.0,31.0,23.9,09.9,0000.0,0002.65,0001.44,0001.15
2023-01-28 06:41:00,,0815.6,5.01,0.00,22.2,20.8,00.0,31.0,24.0,09.7,0000.0,0002.69,0001.45,0001.14
2023-01-28 06:42:00,,0815.6,5.01,0.00,22.2,20.8,00.0,31.0,23.9,09.7,0000.0,0002.57,0001.39,0001.13
2023-01-28 06:43:00,,0815.5,5.01,0.00,22.2,20.7,00.0,31.0,23.9,09.7,0000.0,0002.50,0001.36,0001.10
2023-01-28 06:44:00,,0816.0,4.94,0.00,22.2,20.7,00.0,31.0,23.9,09.6,0000.0,0002.47,0001.33,0001.08
2023-01-28 06:45:00,,0815.6,4.99,0.00,22.2,20.6,00.0,31.0,23.9,09.8,0000.0,0002.44,0001.30,0001.05
2023-01-28 06:46:00,,0815.4,4.98,0.00,22.1,20.6,00.0,31.0,23.8,09.8,0000.0,0002.44,0001.28,0001.03
2023-01-28 06:47:00,,0815.4,5.00,0.00,22.1,20.5,00.0,31.0,23.8,09.9,0000.0,0002.43,0001.29,0001.01
2023-01-28 06:48:00,,0815.3,5.00,0.00,22.1,20.5,00.0,31.0,23.8,09.9,0000.0,0001.91,0001.21,0000.98
2023-01-28 06:49:00,,0815.2,5.02,0.00,22.1,20.5,00.0,31.0,23.8,09.9,0000.0,0001.55,0001.12,0000.94
2023-01-28 06:50:00,,0815.2,5.02,0.00,22.1,20.4,00.0,31.0,23.8,09.9,0000.0,0001.52,0001.09,0000.91
2023-01-28 06:51:00,,0815.3,5.05,0.00,22.0,20.4,00.0,31.0,23.8,09.9,0000.0,0001.72,0001.05,0000.90
2023-01-28 06:52:00,,0815.3,5.01,0.00,22.0,20.6,00.0,30.9,23.8,10.0,0000.0,0002.09,0001.05,0000.92
2023-01-28 06:53:00,,0815.3,5.02,0.00,22.1,21.6,00.0,30.9,24.1,09.8,0000.0,0002.25,0001.09,0000.93
2023-01-28 06:54:00,,0815.4,4.98,0.00,22.2,22.6,00.0,30.9,24.3,09.5,0000.0,0002.44,0001.09,0000.92
2023-01-28 06:55:00,,0815.4,5.01,0.00,22.4,22.8,00.0,31.0,24.4,09.2,0000.0,0002.44,0001.05,0000.89
2023-01-28 06:56:00,,0815.4,5.02,0.00,22.4,22.4,00.0,31.0,24.4,09.4,0000.0,0002.42,0001.03,0000.87
2023-01-28 06:57:00,,0815.4,4.99,0.00,22.4,22.0,00.0,31.1,24.3,09.2,0000.0,0002.32,0000.98,0000.84
2023-01-28 06:58:00,,0815.5,5.01,0.00,22.4,21.7,00.0,31.1,24.2,09.3,0000.0,0002.25,0000.91,0000.79
2023-01-28 06:59:00,,0815.4,5.01,0.00,22.4,21.5,00.0,31.1,24.2,09.4,0000.0,0002.21,0000.89,0000.77
